This is the latest recevied weather packets stored in our database for station/object W4CPD. If no packets are shown the sender has not sent any weather packets the latest 10 day(s).
| Time | Temp. | Humidity | Pressure | Rain* | Wind** | Luminosity | Snow |
|---|---|---|---|---|---|---|---|
| 1778210715 | 20.56° C | 94% | 1015.7 hPa | 0.25 mm | - | - | - |
| 1778208617 | 21.11° C | 94% | 1016.1 hPa | 0.25 mm | - | - | - |
| 1778208355 | 21.11° C | 94% | 1015.9 hPa | 0.25 mm | - | - | - |
| 1778208013 | 21.67° C | 94% | 1015.9 hPa | 0.25 mm | - | - | - |
| 1778206531 | 22.22° C | 93% | 1015.5 hPa | 0.51 mm | - | - | - |
| 1778202037 | 22.78° C | 94% | 1014.6 hPa | 0.25 mm | - | - | - |
| 1778199015 | 23.33° C | 93% | 1014.1 hPa | 0.51 mm | - | - | - |
| 1778198715 | 23.33° C | 93% | 1014 hPa | 0.51 mm | - | - | - |
| 1778196920 | 23.89° C | 93% | 1014.2 hPa | 0.76 mm | - | - | - |
| 1778196015 | 23.89° C | 93% | 1014 hPa | 0.51 mm | - | - | - |
| 1778194832 | 24.44° C | 95% | 1013.9 hPa | 0.51 mm | - | - | - |
| 1778189716 | 24.44° C | 95% | 1013.8 hPa | 0.76 mm | - | - | - |
| 1778186115 | 23.89° C | 98% | 1014 hPa | 0.76 mm | - | - | - |
| 1778185854 | 23.89° C | 98% | 1013.9 hPa | 0.76 mm | - | - | - |
| 1778181914 | 22.78° C | 99% | 1014.1 hPa | 1.02 mm | - | - | - |
| 1778180114 | 22.78° C | 99% | 1014.1 hPa | 1.27 mm | - | - | - |
| 1778176514 | 22.22° C | 99% | 1015.1 hPa | 2.29 mm | - | - | - |
| 1778173814 | 22.22° C | 98% | 1015.5 hPa | 2.54 mm | - | - | - |
| 1778173233 | 22.22° C | 98% | 1015.2 hPa | 2.54 mm | - | - | - |
| 1778172014 | 22.78° C | 99% | 1015.7 hPa | 3.05 mm | - | - | - |
| 1778171716 | 22.78° C | 99% | 1015.3 hPa | 3.05 mm | - | - | - |
| 1778171435 | 22.78° C | 99% | 1015.7 hPa | 3.3 mm | - | - | - |
| 1778171120 | 22.78° C | 99% | 1015.4 hPa | 3.56 mm | - | - | - |
| 1778167222 | 21.67° C | 94% | 1015.8 hPa | 3.3 mm | - | - | - |
| 1778166318 | 22.78° C | 91% | 1016.3 hPa | 1.52 mm | - | - | - |
* Rain latest hour (hover to see other rain measurements)
** Current wind speed in m/s (hover to see current wind gust speed)